Time,TemperatureF,DewpointF,PressureIn,WindDirection,WindDirectionDegrees,WindSpeedMPH,WindSpeedGustMPH,Humidity,HourlyPrecipIn,Conditions,Clouds,dailyrainin,SoftwareType,DateUTC
2013-10-28 00:03:00,70.2,65.7,30.23,NE,45,1.7,4.4,86,0.00,,,0.00,,2013-10-27 23:03:00,
2013-10-28 00:08:00,70.2,65.7,30.23,NE,45,1.7,3.1,86,0.00,,,0.00,,2013-10-27 23:08:00,
2013-10-28 00:13:00,70.2,65.7,30.23,East,90,2.2,4.4,86,0.00,,,0.00,,2013-10-27 23:13:00,
2013-10-28 00:18:00,70.0,65.5,30.23,East,90,1.7,4.4,86,0.00,,,0.00,,2013-10-27 23:18:00,
2013-10-28 00:23:00,70.0,65.5,30.23,East,90,2.6,3.1,86,0.00,,,0.00,,2013-10-27 23:23:00,
2013-10-28 00:28:00,70.0,65.5,30.20,NE,45,2.2,2.2,86,0.00,,,0.00,,2013-10-27 23:28:00,
2013-10-28 00:33:00,69.8,65.3,30.20,NE,45,1.3,2.2,86,0.00,,,0.00,,2013-10-27 23:33:00,
2013-10-28 00:38:00,69.8,64.9,30.20,NE,45,2.2,4.9,85,0.00,,,0.00,,2013-10-27 23:38:00,
2013-10-28 00:43:00,69.6,65.1,30.20,NE,45,2.2,4.4,86,0.00,,,0.00,,2013-10-27 23:43:00,
2013-10-28 00:48:00,69.4,64.6,30.23,NE,45,1.3,2.2,85,0.00,,,0.00,,2013-10-27 23:48:00,
2013-10-28 00:53:00,69.4,64.9,30.23,NE,45,1.3,2.2,86,0.00,,,0.00,,2013-10-27 23:53:00,
2013-10-28 00:58:00,69.4,64.9,30.23,NE,45,1.3,3.1,86,0.00,,,0.00,,2013-10-27 23:58:00,
2013-10-28 01:03:00,69.4,64.6,30.23,East,90,0.4,0.8,85,0.00,,,0.00,,2013-10-28 00:03:00,
2013-10-28 01:08:00,69.6,65.1,30.23,NE,45,0.4,1.7,86,0.00,,,0.00,,2013-10-28 00:08:00,
2013-10-28 01:13:00,69.6,64.8,30.23,NE,45,0.8,1.3,85,0.00,,,0.00,,2013-10-28 00:13:00,
2013-10-28 01:18:00,69.6,64.8,30.20,East,90,1.3,2.2,85,0.00,,,0.00,,2013-10-28 00:18:00,
2013-10-28 01:23:00,69.4,64.9,30.20,East,90,0.8,2.2,86,0.00,,,0.00,,2013-10-28 00:23:00,
2013-10-28 01:28:00,69.4,64.9,30.23,NE,45,0.4,0.8,86,0.00,,,0.00,,2013-10-28 00:28:00,
2013-10-28 01:33:00,69.6,65.1,30.23,NE,45,0.8,1.3,86,0.00,,,0.00,,2013-10-28 00:33:00,
2013-10-28 01:38:00,69.6,65.1,30.20,NE,45,0.4,0.0,86,0.00,,,0.00,,2013-10-28 00:38:00,
2013-10-28 01:43:00,69.8,65.3,30.20,East,90,0.4,0.0,86,0.00,,,0.00,,2013-10-28 00:43:00,
2013-10-28 01:48:00,69.6,65.1,30.23,East,90,0.4,0.0,86,0.00,,,0.00,,2013-10-28 00:48:00,
2013-10-28 01:53:00,69.6,65.1,30.23,East,90,0.0,0.0,86,0.00,,,0.00,,2013-10-28 00:53:00,
2013-10-28 01:58:00,69.6,65.1,30.23,East,90,0.0,0.0,86,0.00,,,0.00,,2013-10-28 00:58:00,
2013-10-28 02:03:00,69.8,65.3,30.23,East,90,0.4,1.3,86,0.00,,,0.00,,2013-10-28 01:03:00,
2013-10-28 02:08:00,69.8,65.3,30.20,East,90,0.0,0.0,86,0.00,,,0.00,,2013-10-28 01:08:00,
2013-10-28 02:13:00,70.0,65.5,30.20,East,90,0.0,0.0,86,0.00,,,0.00,,2013-10-28 01:13:00,
2013-10-28 02:18:00,70.0,65.5,30.23,East,90,1.7,0.0,86,0.00,,,0.00,,2013-10-28 01:18:00,
2013-10-28 02:23:00,69.8,65.3,30.23,NE,45,1.3,1.7,86,0.00,,,0.00,,2013-10-28 01:23:00,
2013-10-28 02:28:00,69.6,65.1,30.23,East,90,1.3,1.7,86,0.00,,,0.00,,2013-10-28 01:28:00,
2013-10-28 02:33:00,69.6,65.1,30.23,NE,45,0.4,1.3,86,0.00,,,0.00,,2013-10-28 01:33:00,
2013-10-28 02:38:00,69.8,65.3,30.20,NE,45,2.2,3.1,86,0.00,,,0.00,,2013-10-28 01:38:00,
2013-10-28 02:43:00,69.8,65.3,30.20,NE,45,1.7,2.2,86,0.00,,,0.00,,2013-10-28 01:43:00,
2013-10-28 02:48:00,69.6,65.1,30.20,NE,45,1.7,2.2,86,0.00,,,0.00,,2013-10-28 01:48:00,
2013-10-28 02:53:00,69.4,64.9,30.20,NE,45,1.7,2.2,86,0.00,,,0.00,,2013-10-28 01:53:00,
2013-10-28 02:58:00,69.4,64.9,30.20,NE,45,2.2,2.2,86,0.00,,,0.00,,2013-10-28 01:58:00,
2013-10-28 03:03:00,69.6,65.1,30.20,NE,45,1.7,1.7,86,0.00,,,0.00,,2013-10-28 02:03:00,
2013-10-28 03:08:00,69.8,65.3,30.20,NE,45,2.6,2.6,86,0.00,,,0.00,,2013-10-28 02:08:00,
2013-10-28 03:13:00,69.6,64.8,30.20,NE,45,3.1,3.1,85,0.00,,,0.00,,2013-10-28 02:13:00,
2013-10-28 03:18:00,69.6,65.1,30.20,NE,45,2.6,3.5,86,0.00,,,0.00,,2013-10-28 02:18:00,
2013-10-28 03:23:00,69.4,64.6,30.20,NE,45,2.2,3.5,85,0.00,,,0.00,,2013-10-28 02:23:00,
2013-10-28 03:28:00,69.3,64.8,30.20,NE,45,2.6,2.6,86,0.00,,,0.00,,2013-10-28 02:28:00,
2013-10-28 03:33:00,69.3,64.4,30.20,NE,45,3.1,3.5,85,0.00,,,0.00,,2013-10-28 02:33:00,
2013-10-28 03:38:00,69.1,64.2,30.20,NE,45,2.6,3.5,85,0.00,,,0.00,,2013-10-28 02:38:00,
2013-10-28 03:43:00,69.1,64.6,30.20,NE,45,3.5,4.0,86,0.00,,,0.00,,2013-10-28 02:43:00,
2013-10-28 03:48:00,69.1,64.6,30.20,NE,45,1.7,4.0,86,0.00,,,0.00,,2013-10-28 02:48:00,
2013-10-28 03:53:00,69.1,64.2,30.20,ENE,67,0.8,0.0,85,0.00,,,0.00,,2013-10-28 02:53:00,
2013-10-28 03:58:00,69.1,64.2,30.17,NE,45,1.3,1.3,85,0.00,,,0.00,,2013-10-28 02:58:00,
2013-10-28 04:03:00,69.3,64.8,30.17,East,90,0.8,1.7,86,0.00,,,0.00,,2013-10-28 03:03:00,
2013-10-28 04:08:00,69.3,64.8,30.17,NE,45,2.6,2.6,86,0.00,,,0.00,,2013-10-28 03:08:00,
2013-10-28 04:13:00,69.3,64.8,30.17,NE,45,1.7,3.1,86,0.00,,,0.00,,2013-10-28 03:13:00,
2013-10-28 04:18:00,69.4,64.6,30.17,ENE,67,0.8,2.2,85,0.00,,,0.00,,2013-10-28 03:18:00,
2013-10-28 04:23:00,69.4,64.6,30.17,NE,45,2.6,4.4,85,0.00,,,0.00,,2013-10-28 03:23:00,
2013-10-28 04:28:00,69.4,64.6,30.17,NE,45,2.2,3.5,85,0.00,,,0.00,,2013-10-28 03:28:00,
2013-10-28 04:33:00,69.3,64.4,30.17,NE,45,3.1,3.5,85,0.00,,,0.00,,2013-10-28 03:33:00,
2013-10-28 04:38:00,69.3,64.0,30.20,NE,45,3.5,3.5,84,0.00,,,0.00,,2013-10-28 03:38:00,
2013-10-28 04:43:00,69.3,64.4,30.20,NE,45,3.1,3.5,85,0.00,,,0.00,,2013-10-28 03:43:00,
2013-10-28 04:48:00,69.3,64.4,30.17,NE,45,2.2,2.6,85,0.00,,,0.00,,2013-10-28 03:48:00,
2013-10-28 04:53:00,69.3,64.0,30.17,NE,45,2.6,3.5,84,0.00,,,0.00,,2013-10-28 03:53:00,
2013-10-28 04:58:00,69.3,64.0,30.17,NE,45,3.5,3.5,84,0.00,,,0.00,,2013-10-28 03:58:00,
2013-10-28 05:03:00,69.3,64.0,30.17,NE,45,2.6,3.5,84,0.00,,,0.00,,2013-10-28 04:03:00,
2013-10-28 05:08:00,69.1,63.9,30.17,NE,45,3.5,4.9,84,0.00,,,0.00,,2013-10-28 04:08:00,
2013-10-28 05:13:00,69.1,63.9,30.17,NE,45,3.1,3.5,84,0.00,,,0.00,,2013-10-28 04:13:00,
2013-10-28 05:18:00,69.1,63.9,30.17,NE,45,2.6,3.5,84,0.00,,,0.00,,2013-10-28 04:18:00,
2013-10-28 05:23:00,69.1,63.9,30.17,NE,45,2.2,3.5,84,0.00,,,0.00,,2013-10-28 04:23:00,
2013-10-28 05:28:00,69.3,64.0,30.17,NE,45,1.3,2.2,84,0.00,,,0.00,,2013-10-28 04:28:00,
2013-10-28 05:33:00,69.3,64.0,30.17,NE,45,2.2,3.1,84,0.00,,,0.00,,2013-10-28 04:33:00,
2013-10-28 05:38:00,69.3,64.0,30.17,NE,45,2.2,2.2,84,0.00,,,0.00,,2013-10-28 04:38:00,
2013-10-28 05:43:00,69.3,64.0,30.17,NE,45,1.7,2.2,84,0.00,,,0.00,,2013-10-28 04:43:00,
2013-10-28 05:48:00,69.1,63.9,30.17,NE,45,2.2,2.2,84,0.00,,,0.00,,2013-10-28 04:48:00,
2013-10-28 05:53:00,69.1,63.9,30.17,NE,45,1.7,2.2,84,0.00,,,0.00,,2013-10-28 04:53:00,
2013-10-28 05:58:00,69.1,63.9,30.17,NE,45,2.6,2.6,84,0.00,,,0.00,,2013-10-28 04:58:00,
2013-10-28 06:03:00,69.1,63.9,30.17,NE,45,1.3,2.6,84,0.00,,,0.00,,2013-10-28 05:03:00,
2013-10-28 06:08:00,69.1,63.9,30.17,NE,45,1.3,0.0,84,0.00,,,0.00,,2013-10-28 05:08:00,
2013-10-28 06:13:00,69.1,63.9,30.17,NE,45,2.6,3.5,84,0.00,,,0.00,,2013-10-28 05:13:00,
2013-10-28 06:18:00,68.9,63.9,30.17,NE,45,2.2,3.5,84,0.00,,,0.00,,2013-10-28 05:18:00,
2013-10-28 06:23:00,68.9,63.9,30.17,NE,45,2.6,3.5,84,0.00,,,0.00,,2013-10-28 05:23:00,
2013-10-28 06:28:00,69.1,63.9,30.17,NE,45,2.6,4.9,84,0.00,,,0.00,,2013-10-28 05:28:00,
2013-10-28 06:33:00,69.1,63.9,30.17,NE,45,1.7,4.9,84,0.00,,,0.00,,2013-10-28 05:33:00,
2013-10-28 06:38:00,69.1,63.7,30.17,NE,45,2.2,2.2,83,0.00,,,0.00,,2013-10-28 05:38:00,
2013-10-28 06:43:00,69.1,63.7,30.17,NE,45,2.2,2.2,83,0.00,,,0.00,,2013-10-28 05:43:00,
2013-10-28 06:48:00,68.9,63.5,30.17,NE,45,2.2,2.2,83,0.00,,,0.00,,2013-10-28 05:48:00,
2013-10-28 06:53:00,69.1,63.9,30.17,NE,45,1.7,1.7,84,0.00,,,0.00,,2013-10-28 05:53:00,
2013-10-28 06:58:00,69.1,63.7,30.17,NE,45,3.1,3.1,83,-99.99,,,0.00,,2013-10-28 05:58:00,
2013-10-28 07:03:00,69.1,63.7,30.17,NE,45,2.2,3.5,83,-99.99,,,0.00,,2013-10-28 06:03:00,
2013-10-28 07:08:00,69.3,63.9,30.17,NE,45,1.3,2.2,83,-99.99,,,0.00,,2013-10-28 06:08:00,
2013-10-28 07:13:00,69.4,64.0,30.17,NE,45,1.7,3.5,83,-99.99,,,0.00,,2013-10-28 06:13:00,
2013-10-28 07:18:00,69.6,64.2,30.17,East,90,1.7,2.6,83,-99.99,,,0.00,,2013-10-28 06:18:00,
2013-10-28 07:23:00,69.8,64.4,30.17,NE,45,3.5,4.4,83,-99.99,,,0.00,,2013-10-28 06:23:00,
2013-10-28 07:28:00,69.8,64.4,30.20,East,90,4.0,5.3,83,-99.99,,,0.00,,2013-10-28 06:28:00,
2013-10-28 07:33:00,70.0,64.4,30.20,East,90,4.0,5.3,83,-99.99,,,0.00,,2013-10-28 06:33:00,
2013-10-28 07:38:00,70.0,64.4,30.17,East,90,4.0,4.0,83,-99.99,,,0.00,,2013-10-28 06:38:00,
2013-10-28 07:43:00,70.2,64.6,30.17,East,90,1.7,3.1,83,-99.99,,,0.00,,2013-10-28 06:43:00,
2013-10-28 07:48:00,70.3,64.8,30.17,NE,45,3.1,4.0,83,-99.99,,,0.00,,2013-10-28 06:48:00,
2013-10-28 07:53:00,70.7,65.1,30.17,East,90,2.2,3.1,83,-99.99,,,0.00,,2013-10-28 06:53:00,
2013-10-28 07:58:00,71.1,65.5,30.20,East,90,1.3,3.5,83,-99.99,,,0.00,,2013-10-28 06:58:00,
2013-10-28 08:03:00,71.4,65.5,30.20,East,90,2.6,3.1,82,-99.99,,,0.00,,2013-10-28 07:03:00,
2013-10-28 08:08:00,71.6,65.7,30.17,East,90,2.2,3.1,82,-99.99,,,0.00,,2013-10-28 07:08:00,
2013-10-28 08:13:00,71.8,65.8,30.17,NE,45,2.6,2.6,82,-99.99,,,0.00,,2013-10-28 07:13:00,
2013-10-28 08:18:00,72.1,65.8,30.20,East,90,1.3,4.9,81,-99.99,,,0.00,,2013-10-28 07:18:00,
2013-10-28 08:23:00,72.3,66.0,30.20,East,90,3.1,3.1,81,-99.99,,,0.00,,2013-10-28 07:23:00,
2013-10-28 08:28:00,72.5,66.2,30.20,ENE,67,3.5,3.5,81,-99.99,,,0.00,,2013-10-28 07:28:00,
2013-10-28 08:33:00,72.9,66.2,30.20,East,90,2.2,4.4,80,-99.99,,,0.00,,2013-10-28 07:33:00,
2013-10-28 08:38:00,72.9,66.2,30.20,NE,45,4.0,4.0,80,-99.99,,,0.00,,2013-10-28 07:38:00,
2013-10-28 08:43:00,73.4,66.7,30.20,East,90,1.7,1.7,80,-99.99,,,0.00,,2013-10-28 07:43:00,
2013-10-28 08:48:00,73.8,67.1,30.20,East,90,2.6,5.3,80,-99.99,,,0.00,,2013-10-28 07:48:00,
2013-10-28 08:53:00,73.9,66.9,30.20,East,90,2.6,4.9,79,-99.99,,,0.00,,2013-10-28 07:53:00,
2013-10-28 08:58:00,74.3,67.3,30.20,East,90,1.7,4.4,79,-99.99,,,0.00,,2013-10-28 07:58:00,
2013-10-28 09:03:00,74.3,67.3,30.20,East,90,1.7,3.5,79,0.00,,,0.00,,2013-10-28 08:03:00,
2013-10-28 09:08:00,74.5,67.5,30.20,East,90,2.6,3.1,79,0.00,,,0.00,,2013-10-28 08:08:00,
2013-10-28 09:13:00,74.7,67.6,30.20,SE,135,1.7,3.1,79,0.00,,,0.00,,2013-10-28 08:13:00,
2013-10-28 09:18:00,74.8,67.8,30.17,East,90,2.2,5.3,79,0.00,,,0.00,,2013-10-28 08:18:00,
2013-10-28 09:23:00,75.2,68.2,30.17,East,90,1.7,5.3,79,0.00,,,0.00,,2013-10-28 08:23:00,
2013-10-28 09:28:00,75.6,68.5,30.20,East,90,3.1,5.3,79,0.00,,,0.00,,2013-10-28 08:28:00,
2013-10-28 09:33:00,75.9,68.9,30.20,SE,135,2.6,4.0,79,0.00,,,0.00,,2013-10-28 08:33:00,
2013-10-28 09:38:00,76.1,69.1,30.20,NE,45,2.2,2.6,79,0.00,,,0.00,,2013-10-28 08:38:00,
2013-10-28 09:43:00,76.1,69.1,30.20,SE,135,2.2,2.6,79,0.00,,,0.00,,2013-10-28 08:43:00,
2013-10-28 09:48:00,76.5,69.4,30.20,NE,45,0.8,0.0,79,0.00,,,0.00,,2013-10-28 08:48:00,
2013-10-28 09:53:00,76.6,69.6,30.20,NE,45,3.1,0.0,79,0.00,,,0.00,,2013-10-28 08:53:00,
2013-10-28 09:58:00,76.8,69.8,30.20,East,90,3.5,6.2,79,0.00,,,0.00,,2013-10-28 08:58:00,
2013-10-28 10:03:00,77.0,70.0,30.20,SE,135,4.4,4.4,79,0.00,,,0.00,,2013-10-28 09:03:00,
2013-10-28 10:08:00,77.0,70.0,30.20,SE,135,7.1,7.1,79,0.00,,,0.00,,2013-10-28 09:08:00,
2013-10-28 10:13:00,77.0,70.0,30.20,SE,135,4.0,5.8,79,0.00,,,0.00,,2013-10-28 09:13:00,
2013-10-28 10:18:00,77.0,70.0,30.20,SSW,202,4.4,4.4,79,0.00,,,0.00,,2013-10-28 09:18:00,
2013-10-28 10:23:00,77.0,70.0,30.20,South,180,7.1,7.1,79,0.00,,,0.00,,2013-10-28 09:23:00,
2013-10-28 10:28:00,77.2,70.0,30.20,SE,135,5.3,8.0,79,0.00,,,0.00,,2013-10-28 09:28:00,
2013-10-28 10:33:00,77.4,70.2,30.20,SE,135,5.3,6.2,79,0.00,,,0.00,,2013-10-28 09:33:00,
2013-10-28 10:38:00,77.7,70.5,30.20,SE,135,3.5,6.2,79,0.00,,,0.00,,2013-10-28 09:38:00,
2013-10-28 10:43:00,77.7,70.5,30.20,SE,135,4.4,5.3,79,0.00,,,0.00,,2013-10-28 09:43:00,
2013-10-28 10:48:00,77.7,70.2,30.20,SE,135,6.7,8.5,78,0.00,,,0.00,,2013-10-28 09:48:00,
2013-10-28 10:53:00,77.7,70.2,30.20,SE,135,4.4,8.5,78,0.00,,,0.00,,2013-10-28 09:53:00,
2013-10-28 10:58:00,78.4,70.9,30.17,SE,135,5.3,6.2,78,0.00,,,0.00,,2013-10-28 09:58:00,
2013-10-28 11:03:00,78.3,70.3,30.17,SE,135,4.4,6.2,77,0.00,,,0.00,,2013-10-28 10:03:00,
2013-10-28 11:08:00,78.8,70.9,30.20,SE,135,5.8,6.2,77,0.00,,,0.00,,2013-10-28 10:08:00,
2013-10-28 11:13:00,78.8,70.9,30.20,SE,135,5.8,5.8,77,0.00,,,0.00,,2013-10-28 10:13:00,
2013-10-28 11:18:00,78.8,70.9,30.17,SE,135,4.0,5.3,77,0.00,,,0.00,,2013-10-28 10:18:00,
2013-10-28 11:23:00,78.6,70.7,30.17,SE,135,4.0,5.8,77,0.00,,,0.00,,2013-10-28 10:23:00,
2013-10-28 11:28:00,78.6,70.7,30.17,SE,135,3.5,6.2,77,0.00,,,0.00,,2013-10-28 10:28:00,
2013-10-28 11:38:00,78.4,70.5,30.17,SE,135,4.0,5.8,77,0.00,,,0.00,,2013-10-28 10:38:00,
2013-10-28 11:43:00,78.8,70.9,30.17,SSE,157,5.8,9.3,77,0.00,,,0.00,,2013-10-28 10:43:00,
2013-10-28 11:48:00,79.0,71.1,30.17,South,180,2.6,9.3,77,0.00,,,0.00,,2013-10-28 10:48:00,
2013-10-28 11:53:00,79.2,71.2,30.17,SE,135,4.4,4.4,77,0.00,,,0.00,,2013-10-28 10:53:00,
2013-10-28 11:58:00,79.0,71.1,30.17,SE,135,5.8,9.3,77,0.00,,,0.00,,2013-10-28 10:58:00,
2013-10-28 12:03:00,79.0,71.1,30.17,SE,135,5.3,5.3,77,0.00,,,0.00,,2013-10-28 11:03:00,
2013-10-28 12:08:00,79.0,71.1,30.17,SE,135,2.6,4.4,77,0.00,,,0.00,,2013-10-28 11:08:00,
2013-10-28 12:13:00,79.0,70.7,30.17,SE,135,4.0,4.4,76,0.00,,,0.00,,2013-10-28 11:13:00,
2013-10-28 12:18:00,79.5,71.6,30.17,SE,135,1.7,3.5,77,0.00,,,0.00,,2013-10-28 11:18:00,
2013-10-28 12:23:00,79.9,71.6,30.17,SE,135,2.6,3.5,76,0.00,,,0.00,,2013-10-28 11:23:00,
2013-10-28 12:28:00,79.9,71.2,30.17,SE,135,3.5,7.6,75,0.00,,,0.00,,2013-10-28 11:28:00,
2013-10-28 12:33:00,79.5,70.9,30.17,SE,135,4.9,7.6,75,0.00,,,0.00,,2013-10-28 11:33:00,
2013-10-28 12:38:00,79.7,71.1,30.17,SE,135,5.8,6.2,75,0.00,,,0.00,,2013-10-28 11:38:00,
2013-10-28 12:43:00,79.9,71.2,30.17,South,180,4.9,6.2,75,0.00,,,0.00,,2013-10-28 11:43:00,
2013-10-28 12:48:00,80.2,71.4,30.15,SSE,157,5.3,9.3,75,0.00,,,0.00,,2013-10-28 11:48:00,
2013-10-28 12:53:00,80.2,71.1,30.15,SE,135,7.1,10.2,74,0.00,,,0.00,,2013-10-28 11:53:00,
2013-10-28 13:03:00,80.2,71.1,30.15,South,180,5.8,8.9,74,0.00,,,0.00,,2013-10-28 12:03:00,
2013-10-28 13:08:00,80.6,71.4,30.15,South,180,4.0,8.9,74,0.00,,,0.00,,2013-10-28 12:08:00,
2013-10-28 13:13:00,80.8,71.6,30.15,SE,135,3.5,3.5,74,0.00,,,0.00,,2013-10-28 12:13:00,
2013-10-28 13:18:00,80.6,71.1,30.15,SE,135,5.3,5.3,73,0.00,,,0.00,,2013-10-28 12:18:00,
2013-10-28 13:23:00,81.0,71.8,30.15,ESE,112,3.5,3.5,74,0.00,,,0.00,,2013-10-28 12:23:00,
2013-10-28 13:28:00,81.3,71.8,30.15,South,180,4.0,4.0,73,0.00,,,0.00,,2013-10-28 12:28:00,
2013-10-28 13:33:00,80.6,70.7,30.15,SE,135,6.2,8.5,72,0.00,,,0.00,,2013-10-28 12:33:00,
2013-10-28 13:38:00,80.4,71.2,30.12,SE,135,5.3,5.3,74,0.00,,,0.00,,2013-10-28 12:38:00,
2013-10-28 13:43:00,80.4,70.9,30.12,SE,135,5.3,0.0,73,0.00,,,0.00,,2013-10-28 12:43:00,
2013-10-28 13:48:00,80.6,71.1,30.15,SE,135,6.7,6.7,73,0.00,,,0.00,,2013-10-28 12:48:00,
2013-10-28 13:53:00,80.1,70.5,30.15,SE,135,8.0,8.0,73,0.00,,,0.00,,2013-10-28 12:53:00,
2013-10-28 13:58:00,79.9,70.7,30.15,South,180,4.0,4.0,74,0.00,,,0.00,,2013-10-28 12:58:00,
2013-10-28 14:03:00,79.5,70.9,30.15,SE,135,4.9,8.9,75,0.00,,,0.00,,2013-10-28 13:03:00,
2013-10-28 14:08:00,79.3,70.7,30.12,SE,135,4.4,0.0,75,0.00,,,0.00,,2013-10-28 13:08:00,
2013-10-28 14:13:00,79.5,70.9,30.12,SE,135,2.2,4.0,75,0.00,,,0.00,,2013-10-28 13:13:00,
2013-10-28 14:18:00,80.2,71.4,30.15,SE,135,2.6,8.5,75,0.00,,,0.00,,2013-10-28 13:18:00,
2013-10-28 14:23:00,80.4,71.2,30.15,South,180,4.9,4.9,74,0.00,,,0.00,,2013-10-28 13:23:00,
2013-10-28 14:28:00,79.9,70.7,30.12,SE,135,4.9,9.8,74,0.00,,,0.00,,2013-10-28 13:28:00,
2013-10-28 14:33:00,79.7,71.1,30.12,SE,135,3.1,4.0,75,0.00,,,0.00,,2013-10-28 13:33:00,
2013-10-28 14:38:00,79.5,70.9,30.12,SE,135,2.6,0.0,75,0.00,,,0.00,,2013-10-28 13:38:00,
2013-10-28 14:43:00,79.9,70.7,30.12,SE,135,5.3,7.6,74,0.00,,,0.00,,2013-10-28 13:43:00,
2013-10-28 14:48:00,80.1,70.9,30.15,SE,135,4.9,6.2,74,0.00,,,0.00,,2013-10-28 13:48:00,
2013-10-28 14:53:00,79.9,70.7,30.15,SE,135,6.2,6.2,74,0.00,,,0.00,,2013-10-28 13:53:00,
2013-10-28 14:58:00,79.5,70.3,30.12,SE,135,4.0,0.0,74,0.00,,,0.00,,2013-10-28 13:58:00,
2013-10-28 15:03:00,79.3,70.2,30.12,SE,135,4.0,0.0,74,0.00,,,0.00,,2013-10-28 14:03:00,
2013-10-28 15:08:00,79.3,70.7,30.12,SE,135,3.1,7.6,75,0.00,,,0.00,,2013-10-28 14:08:00,
2013-10-28 15:13:00,79.7,70.5,30.12,SE,135,3.5,6.2,74,0.00,,,0.00,,2013-10-28 14:13:00,
2013-10-28 15:18:00,79.7,70.5,30.12,SE,135,4.4,4.4,74,0.00,,,0.00,,2013-10-28 14:18:00,
2013-10-28 15:23:00,79.7,70.5,30.12,SSW,202,4.9,8.0,74,0.00,,,0.00,,2013-10-28 14:23:00,
2013-10-28 15:28:00,79.9,71.2,30.12,SE,135,4.9,6.2,75,0.00,,,0.00,,2013-10-28 14:28:00,
2013-10-28 15:33:00,79.9,71.2,30.12,SE,135,5.8,5.8,75,0.00,,,0.00,,2013-10-28 14:33:00,
2013-10-28 15:38:00,80.1,71.2,30.12,SE,135,3.1,7.6,75,0.00,,,0.00,,2013-10-28 14:38:00,
2013-10-28 15:43:00,79.9,71.2,30.12,SE,135,3.1,7.6,75,0.00,,,0.00,,2013-10-28 14:43:00,
2013-10-28 15:48:00,79.9,71.6,30.12,South,180,4.4,5.3,76,0.00,,,0.00,,2013-10-28 14:48:00,
2013-10-28 15:53:00,79.9,71.6,30.12,South,180,5.3,0.0,76,0.00,,,0.00,,2013-10-28 14:53:00,
2013-10-28 15:58:00,79.5,71.2,30.12,South,180,5.3,5.3,76,0.00,,,0.00,,2013-10-28 14:58:00,
2013-10-28 16:03:00,79.5,71.2,30.12,South,180,5.3,7.6,76,0.00,,,0.00,,2013-10-28 15:03:00,
2013-10-28 16:08:00,79.2,70.9,30.12,SE,135,5.8,6.2,76,0.00,,,0.00,,2013-10-28 15:08:00,
2013-10-28 16:13:00,79.0,71.1,30.12,SE,135,4.0,5.8,77,0.00,,,0.00,,2013-10-28 15:13:00,
2013-10-28 16:18:00,78.8,70.9,30.12,SE,135,3.1,5.8,77,0.00,,,0.00,,2013-10-28 15:18:00,
2013-10-28 16:23:00,78.4,70.9,30.12,SE,135,4.9,5.8,78,0.00,,,0.00,,2013-10-28 15:23:00,
2013-10-28 16:28:00,78.3,70.3,30.12,SE,135,4.9,5.8,77,0.00,,,0.00,,2013-10-28 15:28:00,
2013-10-28 16:33:00,78.1,70.5,30.12,SW,225,4.0,4.0,78,0.00,,,0.00,,2013-10-28 15:33:00,
2013-10-28 16:38:00,77.9,70.3,30.12,South,180,2.2,5.3,78,0.00,,,0.00,,2013-10-28 15:38:00,
2013-10-28 16:43:00,77.7,70.5,30.12,SE,135,2.6,2.6,79,0.00,,,0.00,,2013-10-28 15:43:00,
2013-10-28 16:48:00,77.5,70.3,30.12,South,180,4.0,7.6,79,0.00,,,0.00,,2013-10-28 15:48:00,
2013-10-28 16:58:00,77.2,70.5,30.12,South,180,1.7,4.0,80,0.00,,,0.00,,2013-10-28 15:58:00,
2013-10-28 17:08:00,76.6,70.3,30.12,SE,135,3.1,3.5,81,0.00,,,0.00,,2013-10-28 16:08:00,
2013-10-28 17:13:00,76.5,70.2,30.12,SW,225,2.6,3.1,81,0.00,,,0.00,,2013-10-28 16:13:00,
2013-10-28 17:23:00,76.3,70.0,30.12,South,180,2.2,4.4,81,0.00,,,0.00,,2013-10-28 16:23:00,
2013-10-28 17:28:00,76.1,70.2,30.12,SE,135,1.7,2.2,82,0.00,,,0.00,,2013-10-28 16:28:00,
2013-10-28 17:33:00,75.9,70.0,30.12,South,180,1.3,0.0,82,0.00,,,0.00,,2013-10-28 16:33:00,
2013-10-28 17:38:00,75.7,69.8,30.12,SE,135,1.7,2.6,82,0.00,,,0.00,,2013-10-28 16:38:00,
2013-10-28 17:43:00,75.7,69.8,30.12,South,180,1.7,1.7,82,0.00,,,0.00,,2013-10-28 16:43:00,
2013-10-28 17:48:00,75.6,69.6,30.12,SE,135,1.7,1.7,82,0.00,,,0.00,,2013-10-28 16:48:00,
2013-10-28 17:53:00,75.6,69.6,30.12,SE,135,1.3,3.5,82,0.00,,,0.00,,2013-10-28 16:53:00,
2013-10-28 17:58:00,75.4,69.8,30.12,SE,135,2.2,3.1,83,0.00,,,0.00,,2013-10-28 16:58:00,
2013-10-28 18:03:00,75.2,69.6,30.12,SE,135,1.3,1.3,83,0.00,,,0.00,,2013-10-28 17:03:00,
2013-10-28 18:08:00,75.2,69.6,30.15,SE,135,1.7,4.4,83,0.00,,,0.00,,2013-10-28 17:08:00,
2013-10-28 18:13:00,75.2,69.6,30.15,SE,135,2.2,2.2,83,0.00,,,0.00,,2013-10-28 17:13:00,
2013-10-28 18:18:00,75.2,69.6,30.12,SE,135,2.2,4.0,83,0.00,,,0.00,,2013-10-28 17:18:00,
2013-10-28 18:23:00,75.0,69.8,30.12,SE,135,1.3,3.5,84,0.00,,,0.00,,2013-10-28 17:23:00,
2013-10-28 18:28:00,75.0,69.8,30.12,SE,135,1.3,3.5,84,0.00,,,0.00,,2013-10-28 17:28:00,
2013-10-28 18:33:00,75.0,69.8,30.12,SE,135,0.8,3.5,84,0.00,,,0.00,,2013-10-28 17:33:00,
2013-10-28 18:38:00,75.0,69.8,30.12,SE,135,1.7,2.2,84,0.00,,,0.00,,2013-10-28 17:38:00,
2013-10-28 18:43:00,74.8,69.6,30.12,SE,135,2.6,0.0,84,0.00,,,0.00,,2013-10-28 17:43:00,
2013-10-28 18:48:00,74.8,69.6,30.12,SE,135,1.3,3.1,84,0.00,,,0.00,,2013-10-28 17:48:00,
2013-10-28 18:53:00,74.8,69.6,30.12,East,90,1.3,3.5,84,0.00,,,0.00,,2013-10-28 17:53:00,
2013-10-28 18:58:00,74.7,69.4,30.12,SE,135,1.3,0.0,84,0.00,,,0.00,,2013-10-28 17:58:00,
2013-10-28 19:03:00,74.7,69.8,30.12,SE,135,2.2,4.0,85,0.00,,,0.00,,2013-10-28 18:03:00,
2013-10-28 19:08:00,74.7,69.4,30.12,SE,135,1.7,4.9,84,0.00,,,0.00,,2013-10-28 18:08:00,
2013-10-28 19:13:00,74.5,69.3,30.12,SE,135,0.8,4.0,84,0.00,,,0.00,,2013-10-28 18:13:00,
2013-10-28 19:18:00,74.5,69.6,30.15,East,90,1.7,1.7,85,0.00,,,0.00,,2013-10-28 18:18:00,
2013-10-28 19:23:00,74.3,69.4,30.15,SE,135,1.3,2.2,85,0.00,,,0.00,,2013-10-28 18:23:00,
2013-10-28 19:28:00,74.3,69.4,30.12,SE,135,2.6,2.6,85,0.00,,,0.00,,2013-10-28 18:28:00,
2013-10-28 19:33:00,74.3,69.4,30.12,SE,135,2.6,2.6,85,0.00,,,0.00,,2013-10-28 18:33:00,
2013-10-28 19:38:00,74.1,69.3,30.12,SE,135,2.2,2.6,85,0.00,,,0.00,,2013-10-28 18:38:00,
2013-10-28 19:43:00,74.1,69.3,30.12,SE,135,2.6,2.6,85,0.00,,,0.00,,2013-10-28 18:43:00,
2013-10-28 19:48:00,74.1,69.3,30.12,SE,135,2.2,4.0,85,0.00,,,0.00,,2013-10-28 18:48:00,
2013-10-28 19:53:00,74.1,69.3,30.12,SE,135,2.6,3.5,85,0.00,,,0.00,,2013-10-28 18:53:00,
2013-10-28 19:58:00,73.9,69.1,30.12,SE,135,3.1,3.1,85,0.00,,,0.00,,2013-10-28 18:58:00,
2013-10-28 20:03:00,73.9,69.1,30.12,East,90,1.3,2.6,85,0.00,,,0.00,,2013-10-28 19:03:00,
2013-10-28 20:08:00,73.9,69.1,30.12,SE,135,1.7,1.7,85,0.00,,,0.00,,2013-10-28 19:08:00,
2013-10-28 20:13:00,73.9,69.1,30.12,SE,135,1.3,1.3,85,0.00,,,0.00,,2013-10-28 19:13:00,
2013-10-28 20:18:00,73.9,69.1,30.15,SE,135,2.6,2.6,85,0.00,,,0.00,,2013-10-28 19:18:00,
2013-10-28 20:23:00,73.9,69.1,30.15,SE,135,2.2,2.6,85,0.00,,,0.00,,2013-10-28 19:23:00,
2013-10-28 20:28:00,73.9,69.1,30.15,SE,135,1.7,3.5,85,0.00,,,0.00,,2013-10-28 19:28:00,
2013-10-28 20:33:00,73.9,69.1,30.15,SE,135,2.6,3.5,85,0.00,,,0.00,,2013-10-28 19:33:00,
2013-10-28 20:38:00,73.8,68.9,30.15,SE,135,2.6,2.6,85,0.00,,,0.00,,2013-10-28 19:38:00,
2013-10-28 20:43:00,73.8,69.3,30.15,SE,135,2.6,2.6,86,0.00,,,0.00,,2013-10-28 19:43:00,
2013-10-28 20:48:00,73.8,69.3,30.15,SE,135,2.2,3.1,86,0.00,,,0.00,,2013-10-28 19:48:00,
2013-10-28 20:53:00,73.8,69.3,30.15,SE,135,1.7,3.1,86,0.00,,,0.00,,2013-10-28 19:53:00,
2013-10-28 20:58:00,73.8,68.9,30.15,SE,135,1.7,4.9,85,0.00,,,0.00,,2013-10-28 19:58:00,
2013-10-28 21:03:00,73.6,69.1,30.15,SE,135,3.1,3.1,86,0.00,,,0.00,,2013-10-28 20:03:00,
2013-10-28 21:08:00,73.6,69.1,30.15,SE,135,1.3,3.5,86,0.00,,,0.00,,2013-10-28 20:08:00,
2013-10-28 21:13:00,73.6,69.1,30.15,SE,135,2.6,4.4,86,0.00,,,0.00,,2013-10-28 20:13:00,
2013-10-28 21:18:00,73.6,69.1,30.15,East,90,2.2,4.4,86,0.00,,,0.00,,2013-10-28 20:18:00,
2013-10-28 21:23:00,73.6,69.1,30.15,SE,135,3.1,3.1,86,0.00,,,0.00,,2013-10-28 20:23:00,
2013-10-28 21:28:00,73.6,69.1,30.15,ESE,112,3.1,3.1,86,0.00,,,0.00,,2013-10-28 20:28:00,
2013-10-28 21:33:00,73.6,69.1,30.15,SE,135,2.6,2.6,86,0.00,,,0.00,,2013-10-28 20:33:00,
2013-10-28 21:38:00,73.4,68.9,30.15,SE,135,2.6,3.5,86,0.00,,,0.00,,2013-10-28 20:38:00,